Location: *
(53.4003°S, 165.3236°W)
Time: 02:53:42
(UTC+00:00)

Cosmos 2237 Rocket - Pass Details

Date: 11 December 2023
Orbit: 835 x 849 km, 71.0° (Epoch: 24 February)

Event Time Altitude Azimuth Distance (km) Brightness Sun altitude
Rises 13:24:56 0° 214° (SW) 3,455 5.7 -6.9°
Reaches altitude 10° 13:27:28 10° 219° (SW) 2,513 4.9 -6.7°
Maximum altitude 13:33:02 51° 292° (WNW) 1,073 2.5 -6.2°
Drops below altitude 10° 13:38:33 10° 7° (N) 2,485 4.2 -5.8°
Sets 13:41:02 0° 11° (N) 3,412 5.0 -5.5°
